sat.trackr.live / text

‹ back to catalog

QZS-1R (QZSS/PRN 196)

NORAD 49336 · 2021-096A

PAYLOAD ACTIVE UNKNOWN

§ Identity

Operator
Country
JPN
Launch date
2021-10-26
Launch site
TANSC
Launch vehicle
Mass (kg)
RCS (m²)

Purposes: comms, nav

External: N2YO · Heavens-Above · Gunter

§ Orbital elements

Epoch: 2026-09-12T09:22:11.303040Z

Period
1,435.86 min
Inclination
37.6414°
Eccentricity
0.0743535
Mean motion
1.00288268 rev/d
Perigee alt
32,647.2 km
Apogee alt
38,916.7 km
Semi-major
42,160.1 km
B*
0.0000e+0
RAAN
78.2924°
Arg perigee
269.8806°
Mean anomaly
277.8131°
Rev number
1,788

§ Raw data

QZS-1R (QZSS/PRN 196)1 49336U 21096A   26255.39040860 -.00000265  00000+0  00000+0 0  99952 49336  37.6414  78.2924 0743535 269.8806 277.8131  1.00288268 17888

JSON: /api/v1/satellites/49336 · /tle

For live sub-satellite position, see the globe view (requires WebGL).

§ Visibility from observer

Set your observer location to see the next 7 days of passes ≥ 10°. The values pass through the URL so the page stays shareable.

No JS? Fill the form by hand. The geolocation button needs JavaScript.